Location: Brno
(49.2000°N, 16.6330°E)
Time: 22:00:58
(UTC+02:00)

Meteor 1-4 Rocket - Visible Passes

Search period start: 21 August 2014 00:00
Search period end: 31 August 2014 00:00
Orbit: 470 x 537 km, 81.2° (Epoch: 21 August)

Date Brightness Start Highest point End Pass type
(mag) Time Alt. Az. Time Alt. Az. Time Alt. Az.
21 Aug 3.7 23:27:37 10° NNW 23:30:16 44° NNW 23:30:16 44° NNW visible
22 Aug 3.5 23:08:47 10° N 23:11:36 47° N 23:11:36 47° N visible
23 Aug 3.5 22:50:00 10° N 22:52:56 44° NNE 22:52:56 44° NNE visible
24 Aug 5.5 00:26:53 10° NW 00:27:42 12° WNW 00:27:42 12° WNW visible
24 Aug 3.6 22:31:14 10° N 22:34:17 38° NE 22:34:17 38° NE visible
25 Aug 5.2 00:07:33 10° NW 00:09:02 16° WNW 00:09:02 16° WNW visible
25 Aug 3.8 22:12:30 10° N 22:15:38 31° ENE 22:15:38 31° ENE visible
25 Aug 5.0 23:48:23 10° NW 23:50:24 20° WNW 23:50:24 20° WNW visible
26 Aug 4.0 21:53:49 10° NNE 21:57:00 25° ENE 21:57:00 25° ENE visible
26 Aug 4.6 23:29:18 10° NNW 23:31:45 26° WNW 23:31:45 26° WNW visible
27 Aug 4.3 21:35:10 10° NNE 21:38:06 21° ENE 21:38:22 20° ENE visible
27 Aug 4.2 23:10:17 10° NNW 23:13:08 34° WNW 23:13:08 34° WNW visible
28 Aug 4.5 21:16:37 10° NNE 21:19:09 17° ENE 21:19:45 16° ENE visible
28 Aug 3.7 22:51:18 10° NNW 22:54:31 45° WNW 22:54:31 45° WNW visible
29 Aug 4.8 20:58:12 10° NNE 21:00:10 14° ENE 21:01:09 13° E visible
29 Aug 3.1 22:32:22 10° NNW 22:35:54 61° WNW 22:35:54 61° WNW visible
30 Aug 5.0 20:40:09 10° NE 20:41:10 11° ENE 20:42:11 10° ENE visible
30 Aug 2.6 22:13:28 10° NNW 22:17:19 84° W 22:17:19 84° W visible
